Theta_e
300 300 300 299 299 299 299 299 299 300 301 301 301 302 303 304 304 306 307 307 308 309 311 310 309 310 310 310 311 311 312 312 313 314 313 313 313 312 312 312 311 311 310 309 308 306 305 302 301 301 300 299 298 297 297 295 295 295 294 294 293 292 292 292 293 293 291 288 289 289 290 291 291 291 291 292 292 292 292 291 291 292 291 291 290
299 298 298 298 297 297 297 298 298 297 298 299 300 300 301 302 303 304 306 306 306 308 310 309 310 310 309 309 310 310 310 309 310 311 312 312 311 310 310 309 310 310 309 309 308 307 304 301 300 299 298 298 298 297 295 295 295 294 294 292 292 292 291 293 293 292 288 287 286 287 288 289 290 289 289 290 291 291 291 291 291 291 291 291 290
296 296 297 296 296 296 296 296 296 297 297 298 298 299 300 301 302 303 304 304 304 304 305 307 308 309 309 308 308 308 309 309 309 309 309 309 307 307 307 307 307 306 307 307 308 307 305 301 300 299 298 297 296 295 295 294 295 294 294 293 291 290 291 293 293 293 287 287 287 286 284 285 288 287 288 290 291 291 290 290 291 291 291 290 290
294 294 294 294 294 294 294 295 295 296 296 296 297 297 299 299 300 301 301 302 302 303 303 305 307 308 307 306 307 305 302 305 306 306 306 307 305 305 305 306 305 304 304 304 305 306 305 303 300 299 298 297 297 296 294 294 294 294 294 292 292 290 290 292 292 291 289 289 284 285 284 284 283 285 285 288 289 290 290 290 291 291 290 290 289
293 293 293 293 293 293 293 294 295 295 295 295 296 296 297 297 299 300 300 300 301 302 302 302 305 304 305 304 303 303 303 302 302 303 303 303 303 303 304 305 305 303 303 303 303 304 303 303 300 298 298 297 296 296 295 295 294 295 294 293 292 292 290 290 291 291 290 292 289 285 284 284 283 284 285 285 287 287 289 289 290 290 289 289 288
293 292 292 292 292 292 292 293 293 294 294 295 295 295 295 296 297 298 298 299 299 300 301 301 302 301 300 299 298 299 299 300 299 299 300 300 301 302 303 303 304 303 302 302 301 301 301 302 300 298 297 296 296 295 295 294 294 294 294 293 292 291 291 290 290 291 291 291 290 289 288 285 284 285 285 281 286 286 288 288 289 289 288 289 288
292 292 292 291 291 291 291 292 292 293 294 295 295 295 295 295 295 296 296 297 299 299 300 300 299 300 300 300 299 298 297 299 300 300 300 301 301 301 301 302 302 302 301 300 300 299 300 300 299 299 297 297 296 295 294 294 295 294 294 293 292 292 290 289 290 290 290 290 292 293 291 289 289 286 283 281 280 283 286 287 287 288 288 288 288
291 291 291 291 291 291 290 291 292 292 293 294 294 295 294 294 294 294 295 295 296 298 299 299 298 298 298 298 298 298 298 298 299 299 299 297 298 299 300 300 300 301 300 300 299 299 299 299 299 298 298 296 296 295 295 293 294 295 294 294 293 292 291 290 289 290 289 289 290 291 291 291 291 290 288 286 282 281 282 285 286 287 287 287 287
291 290 290 290 290 290 291 290 291 292 293 293 293 293 294 293 293 293 294 294 295 295 296 297 297 298 298 298 297 298 298 298 298 299 298 297 298 298 299 298 298 299 299 299 298 298 297 298 297 297 297 296 295 295 294 294 293 293 293 293 292 292 291 291 289 289 289 289 288 288 290 290 289 288 289 289 282 281 281 282 283 285 286 286 287
290 290 290 290 290 290 290 290 291 291 292 293 292 292 292 292 293 293 293 293 294 294 294 295 295 295 295 295 295 295 297 297 297 297 297 297 296 296 297 297 296 296 297 297 297 297 297 296 296 296 296 296 295 294 293 293 293 293 294 293 293 292 291 291 291 290 290 290 289 290 290 288 287 287 287 288 287 285 284 282 283 283 283 285 287
290 290 290 290 290 290 290 289 290 290 290 291 291 291 291 292 292 291 292 293 293 293 293 293 293 293 293 293 293 293 294 295 294 295 295 295 296 296 295 295 295 295 295 295 296 296 296 296 295 295 295 295 295 294 293 293 293 293 293 293 293 292 291 291 291 290 290 290 289 288 290 291 290 288 287 287 288 286 284 283 284 285 285 283 285
289 288 288 289 289 289 289 289 289 289 290 290 290 290 290 290 290 290 290 291 292 292 292 292 292 292 292 292 292 292 292 293 292 292 293 293 294 294 294 294 294 295 294 294 294 295 295 295 294 294 294 294 294 294 294 293 293 292 292 292 292 292 292 291 290 290 289 289 289 289 289 291 291 290 290 290 289 288 289 285 284 284 284 285 285
287 287 288 288 288 288 288 288 288 288 288 289 289 289 289 289 289 288 289 290 290 291 291 291 291 291 291 291 291 291 291 291 291 291 292 292 292 293 293 292 293 293 293 292 292 293 294 294 293 293 294 294 294 293 293 293 292 292 292 291 292 291 292 291 290 290 290 289 289 289 289 289 290 290 289 289 289 289 287 282 285 285 283 284 283
287 287 287 287 287 287 287 288 288 287 287 288 288 288 289 288 288 288 288 289 289 290 290 290 290 290 290 290 290 291 290 290 290 290 291 291 292 291 292 292 292 292 293 293 294 293 293 294 294 293 293 293 292 293 293 292 292 291 291 290 290 291 290 290 290 290 289 290 289 288 288 289 289 290 290 288 287 287 284 285 285 285 282 283 282
286 286 286 287 287 287 287 287 287 287 287 287 287 287 287 287 287 287 287 288 289 289 289 289 289 289 289 289 289 290 290 290 290 290 290 290 290 291 291 291 291 291 292 293 293 294 294 293 293 293 292 292 292 292 293 292 291 291 291 290 290 289 289 289 289 289 289 288 288 288 288 288 289 289 289 290 289 288 288 286 286 285 282 281 281
285 285 285 285 286 286 286 286 286 286 286 286 286 286 286 286 286 286 286 287 287 288 288 289 288 288 287 287 287 288 288 288 288 289 289 289 290 290 290 290 291 291 291 292 292 293 293 293 292 292 291 292 291 291 291 290 289 288 289 288 288 290 289 287 288 288 288 288 287 288 288 287 288 288 289 290 290 289 288 287 287 287 285 281 279
284 284 284 284 284 285 286 285 285 286 286 286 285 285 285 285 285 285 285 285 286 287 287 288 288 288 288 287 287 286 286 286 287 286 287 288 288 288 288 289 289 290 291 292 292 292 292 292 292 292 291 291 291 290 289 287 287 287 288 287 287 286 286 287 287 287 287 287 287 287 288 288 287 287 288 288 288 288 289 288 288 288 288 285 280
283 284 284 284 284 284 284 285 284 285 284 284 285 285 285 285 285 284 284 284 285 286 286 286 286 287 287 286 286 287 287 286 287 286 286 286 286 287 287 287 287 288 289 290 290 289 289 290 290 289 289 287 287 287 286 287 286 287 287 287 287 286 286 286 286 286 287 286 287 287 287 287 287 286 287 286 287 288 287 288 288 288 289 287 284
285 284 284 284 283 283 283 284 284 285 285 285 285 285 284 284 283 283 283 284 284 285 284 285 285 287 287 286 285 286 286 286 286 286 285 285 285 285 284 285 285 286 286 287 286 286 287 287 287 287 288 288 287 287 287 287 286 287 286 287 286 286 286 286 286 286 286 286 286 286 286 286 286 286 286 286 286 286 287 286 287 288 287 289 285
284 283 284 284 284 283 283 283 283 285 285 286 285 285 284 284 283 284 284 284 284 284 284 284 285 285 285 284 284 285 285 285 285 285 284 284 285 285 285 285 285 285 285 285 285 285 286 286 286 286 286 287 287 287 286 286 287 287 287 287 287 285 286 286 286 285 286 286 286 286 286 286 286 285 286 286 285 285 286 286 286 286 285 286 285
284 284 284 284 284 284 284 284 285 285 285 286 285 285 285 286 285 284 284 284 284 284 285 285 285 284 283 283 283 283 283 284 283 284 284 284 284 284 284 284 285 285 285 285 285 285 285 285 285 285 286 286 286 286 286 285 285 286 286 286 286 285 285 285 285 285 285 285 285 286 286 286 285 285 286 286 285 285 285 285 285 285 285 284 284
283 284 283 284 283 284 284 285 285 285 286 285 286 285 285 285 285 285 285 284 283 284 284 284 284 284 283 283 284 284 284 284 283 284 283 283 283 283 284 284 284 284 284 284 284 285 285 285 285 285 284 284 285 286 286 286 286 286 285 287 286 285 285 285 284 284 284 285 285 285 285 285 284 285 286 286 286 285 284 285 284 284 284 284 284
284 284 285 285 284 284 285 284 284 285 285 285 285 285 285 285 284 284 283 283 284 284 284 284 282 282 281 281 281 281 283 283 283 283 282 283 283 283 283 282 282 283 284 284 284 284 284 284 284 284 284 284 284 285 286 285 285 285 285 285 286 285 285 285 284 284 284 284 284 284 284 284 285 284 285 286 286 285 285 285 285 285 285 285 284
283 283 284 284 283 283 284 284 286 285 284 284 285 284 283 283 283 283 282 281 281 281 282 282 283 282 281 281 280 281 280 280 280 281 282 282 282 282 282 282 282 282 283 283 284 284 284 284 284 284 284 284 284 284 285 285 285 284 284 285 285 285 285 285 285 285 284 284 284 284 284 283 283 284 285 284 284 284 284 284 285 285 285 285 284
281 281 281 280 280 280 281 281 281 281 281 281 282 282 282 282 282 282 282 281 280 280 280 280 280 280 280 280 280 280 280 279 279 279 279 280 281 281 281 280 280 280 281 281 282 282 282 282 283 283 284 284 284 284 284 284 284 284 284 284 284 284 284 284 284 285 286 285 284 284 284 283 283 283 284 284 284 283 284 284 285 285 285 285 284
281 281 280 281 281 281 281 281 281 281 281 281 281 281 281 282 282 282 282 281 280 280 279 279 279 279 279 279 279 279 279 279 280 280 279 280 281 280 280 280 280 280 280 280 280 281 281 281 281 281 282 283 284 284 284 284 284 284 284 284 284 284 284 284 284 284 284 284 285 285 285 284 284 284 284 285 284 284 284 284 284 284 284 284 284
281 281 280 280 279 280 280 280 280 280 280 280 280 280 280 280 280 280 280 280 280 279 279 278 278 278 278 278 278 279 279 279 279 280 279 279 280 280 280 280 280 279 279 279 280 279 280 280 280 281 281 282 282 283 284 284 284 284 284 284 285 285 285 285 285 285 284 284 285 285 285 285 285 285 285 285 285 284 285 284 284 284 284 284 284
280 280 280 279 279 279 280 280 280 280 280 280 280 280 281 281 281 280 280 280 281 279 278 278 278 278 278 278 279 279 279 280 280 280 279 278 278 279 279 280 280 280 279 279 279 280 280 279 280 280 280 281 281 282 282 283 283 283 284 284 284 284 284 285 285 285 285 285 285 285 285 285 285 285 285 285 285 285 285 284 285 284 284 284 284
279 279 279 279 278 279 279 279 279 280 279 279 280 279 280 280 280 280 280 280 280 279 278 277 277 278 278 278 278 278 278 279 279 279 279 279 279 278 279 279 280 280 281 280 279 279 279 279 279 279 280 280 281 281 282 282 282 282 283 283 284 284 284 284 284 285 285 285 285 285 285 285 285 286 287 287 287 287 286 285 285 284 283 284 284
279 278 278 278 279 279 279 279 279 279 279 279 279 279 279 280 280 280 280 280 281 279 278 277 277 278 278 278 278 278 278 278 278 278 278 278 278 278 278 278 279 279 279 279 279 279 278 278 278 278 279 280 281 282 284 286 287 285 283 283 283 283 284 284 284 284 284 285 285 285 286 286 286 286 286 287 288 288 288 287 286 285 284 284 284
280 279 278 278 278 279 279 279 279 279 279 280 280 280 280 279 279 279 279 279 280 279 278 277 277 278 278 278 278 278 278 278 278 278 278 278 278 278 277 277 278 278 278 278 278 278 277 277 277 277 278 279 280 281 285 287 288 288 286 284 283 283 283 283 283 283 283 284 284 285 285 285 286 286 286 287 288 288 289 289 289 288 287 285 284
278 279 279 278 278 278 278 278 279 279 279 279 279 280 279 279 279 279 279 279 279 278 277 277 277 278 278 278 278 278 278 278 278 277 278 278 278 277 277 277 277 277 277 278 277 277 277 277 277 277 277 277 279 283 285 286 286 287 287 284 283 283 283 283 283 283 284 284 284 284 285 285 285 285 285 285 286 287 288 288 289 289 289 289 289
278 279 279 279 278 278 278 279 278 279 280 280 279 279 279 279 279 280 278 278 277 277 278 278 278 278 278 278 278 277 277 277 277 277 277 278 277 277 276 276 276 276 277 277 277 277 276 276 276 275 275 277 277 282 284 285 285 286 286 286 283 282 282 282 283 283 283 283 284 284 284 285 285 286 286 285 285 284 286 287 288 288 288 289 290
278 278 278 279 279 278 278 278 279 279 278 279 280 279 279 279 278 277 277 277 277 278 278 278 278 278 278 278 278 277 277 277 277 277 277 277 276 276 276 276 275 275 275 276 276 276 276 275 275 275 275 276 276 280 282 284 284 285 286 286 283 282 282 282 282 282 283 283 283 283 283 283 284 285 285 285 285 284 284 284 284 285 285 286 288
278 278 278 278 279 279 278 278 279 279 278 279 278 278 278 277 277 277 277 276 277 277 277 277 277 277 277 277 277 277 277 277 277 277 276 276 276 276 275 275 275 274 274 274 274 274 274 274 274 274 274 274 275 279 281 282 283 285 286 286 283 282 282 282 282 282 282 283 283 283 283 283 284 284 284 285 284 284 284 284 283 283 284 284 285
278 278 278 278 277 277 277 277 278 278 278 277 277 277 276 276 276 275 275 274 275 275 275 276 276 276 276 276 276 276 276 275 275 275 275 275 275 275 275 275 274 274 274 274 274 274 273 273 273 273 273 273 274 279 280 281 282 283 284 282 282 281 281 281 281 281 281 282 283 283 283 283 284 284 285 287 287 285 284 283 283 283 283 284 284
278 278 278 277 277 276 277 277 277 277 277 276 276 276 275 275 275 274 274 274 274 274 274 274 274 275 275 275 275 274 273 274 274 274 273 273 273 273 273 274 273 273 272 272 272 272 273 272 272 272 271 272 272 276 278 279 280 282 282 280 280 280 280 280 280 280 280 281 282 282 283 283 283 283 286 288 288 288 284 283 282 282 282 283 283
278 277 277 276 277 276 276 277 275 275 275 275 275 274 274 274 273 273 272 272 272 271 272 272 272 273 273 272 272 272 272 272 272 271 271 271 271 272 272 272 271 271 271 271 271 271 271 271 271 271 271 271 271 274 277 278 279 280 280 277 278 278 278 279 279 279 280 280 281 283 283 282 282 283 286 288 288 287 284 284 283 282 281 281 282
277 276 276 276 276 276 276 275 274 274 274 273 273 272 272 271 271 271 270 269 269 270 270 270 270 271 271 270 270 270 270 270 269 269 269 268 268 268 269 270 269 270 269 270 270 270 270 270 270 270 272 271 270 272 276 277 278 278 277 276 276 276 276 277 278 278 279 279 280 282 283 284 283 284 287 288 288 287 284 283 283 282 281 281 282
276 276 276 276 276 275 274 273 273 272 272 272 271 270 269 269 269 269 268 268 268 269 269 269 269 268 268 267 268 268 268 267 265 265 265 265 266 266 267 267 267 268 267 268 268 268 268 268 269 269 269 269 269 269 271 275 276 277 278 275 274 273 273 274 276 277 278 278 279 280 282 285 287 287 288 288 288 288 285 284 283 282 281 281 283
276 276 279 274 274 274 273 272 272 271 270 270 269 267 267 267 267 267 266 267 268 268 267 267 266 265 265 265 265 265 264 263 263 263 264 264 264 264 264 264 264 265 265 265 266 266 266 266 267 268 268 268 268 268 269 274 276 276 277 276 273 273 274 275 275 276 277 277 278 279 280 283 285 286 287 288 288 289 288 285 284 282 282 283 285
276 277 275 273 273 272 271 270 270 269 269 268 267 265 265 265 265 264 265 266 266 265 265 264 263 263 262 262 262 262 262 262 262 262 261 261 262 262 262 262 263 262 262 262 263 263 264 264 265 266 266 266 268 270 268 272 274 275 276 277 273 272 274 273 274 275 276 277 278 279 279 281 284 285 286 287 288 289 289 286 284 287 287 287 284
273 272 273 272 270 269 269 268 268 267 267 267 265 263 264 264 263 264 265 264 264 264 263 262 262 261 261 261 261 260 260 261 260 261 260 260 260 260 261 261 261 261 261 261 261 262 262 262 263 264 265 265 266 267 271 269 273 274 275 276 277 276 278 276 275 274 275 277 278 279 280 282 284 285 286 287 287 288 288 287 288 288 288 287 286
273 271 271 268 268 267 267 267 266 265 265 265 263 262 262 262 262 264 264 263 262 262 261 261 260 260 260 260 260 260 260 260 260 260 259 259 259 259 260 260 260 260 260 260 261 261 261 261 261 262 263 265 265 266 269 271 270 273 274 275 276 277 278 276 276 275 276 277 278 278 279 283 284 285 285 286 287 287 286 287 288 288 288 287 285
271 270 268 266 266 265 265 264 265 264 263 262 261 261 261 260 262 262 262 261 261 260 260 259 259 259 259 259 259 259 259 259 259 259 258 259 259 259 259 259 260 260 260 259 260 260 260 260 261 261 262 263 264 265 265 268 271 272 273 274 275 276 277 278 275 276 278 278 281 282 283 283 284 284 285 286 286 286 287 287 287 288 286 285 284
268 267 266 264 264 262 262 262 262 262 262 260 260 259 259 260 262 262 261 261 260 259 259 258 258 258 258 259 258 258 258 259 259 259 259 259 259 259 259 259 259 259 259 259 259 260 260 260 260 261 261 262 264 264 265 266 267 268 269 271 272 274 275 277 277 276 279 281 282 283 283 283 283 284 283 282 282 283 285 286 286 286 285 284 284
265 266 264 263 261 262 261 261 260 261 260 260 259 260 260 261 260 261 261 260 259 258 258 258 258 258 258 258 258 258 258 258 259 259 259 259 259 259 259 259 259 258 258 259 259 259 259 259 259 259 260 261 261 262 263 263 264 265 265 266 267 269 272 274 274 276 278 279 280 282 282 283 282 283 284 284 284 284 283 283 283 284 285 284 284
265 264 262 261 260 260 260 259 259 260 260 260 259 259 260 260 260 260 259 259 258 258 258 257 257 257 258 258 257 259 258 258 258 258 258 258 259 259 258 258 258 258 258 258 258 258 258 259 258 259 259 259 260 260 261 262 263 263 264 266 267 269 269 271 273 275 277 278 278 281 281 281 281 281 281 281 282 282 281 281 282 283 283 283 283
264 263 261 260 259 258 258 258 258 259 259 259 259 259 259 259 260 259 259 258 258 258 258 257 257 257 257 258 258 257 257 257 257 258 258 258 258 258 258 259 260 260 260 259 259 259 260 260 260 260 260 260 260 261 262 267 266 269 267 267 267 268 269 270 273 276 275 276 277 276 276 276 277 277 278 279 280 280 281 281 281 281 282 282 282
263 261 260 259 259 258 257 257 258 259 258 258 258 259 259 260 259 259 258 258 258 257 257 257 257 257 257 257 257 257 257 257 257 257 257 258 261 266 264 262 261 265 269 270 269 264 265 265 264 265 265 264 263 265 270 271 271 272 272 273 274 274 275 273 275 277 275 273 274 275 275 275 276 276 277 278 278 279 279 280 280 281 281 281 281
261 260 259 258 258 257 257 257 258 258 258 258 258 258 258 259 259 259 259 258 257 257 257 257 257 257 257 257 257 257 257 257 257 257 257 257 257 259 265 267 267 267 268 269 270 271 271 271 268 265 267 271 272 272 272 272 272 272 273 273 274 274 274 275 276 273 272 272 273 274 275 276 276 277 277 277 278 278 278 279 279 279 280 280 280
Wind_Speed
8 10 11 12 12 12 10 10 10 11 13 14 13 14 14 12 10 7 5 5 4 4 3 3 2 2 2 2 1 1 0 1 1 0 2 2 3 4 5 5 5 5 5 5 6 6 6 5 6 6 7 7 8 9 9 9 8 9 8 7 10 7 6 7 8 9 9 4 3 3 1 0 1 0 2 2 3 4 4 4 3 5 4 4 3
10 11 12 11 12 12 11 11 12 15 14 14 13 13 12 13 12 9 9 7 7 4 4 3 2 2 2 2 2 1 3 3 1 1 1 2 3 4 5 4 6 6 6 6 6 7 6 6 6 7 7 7 7 5 6 6 6 6 6 5 5 9 7 9 10 11 3 8 6 3 0 1 2 3 4 4 4 4 5 6 5 6 6 5 4
11 11 10 11 11 12 11 11 12 12 12 12 11 11 12 11 11 10 11 10 9 8 7 4 5 6 6 5 6 2 5 4 3 2 2 2 3 3 3 3 4 4 5 5 6 6 6 7 7 7 7 8 7 7 7 7 8 9 8 9 6 4 3 5 11 11 7 5 4 6 2 2 2 2 4 5 5 5 5 6 6 6 7 6 6
10 10 10 10 10 11 12 13 12 11 12 13 13 13 10 11 11 11 11 10 9 9 8 5 6 6 6 6 6 6 3 4 5 5 4 3 3 3 1 1 3 4 4 4 4 5 6 7 6 7 8 8 9 9 8 9 8 8 9 8 8 7 4 7 7 7 5 11 4 6 4 4 2 8 8 4 6 6 6 6 5 6 6 6 6
9 9 9 9 12 13 12 11 11 13 13 13 12 12 9 11 11 10 9 9 8 9 9 6 6 4 4 3 3 2 2 3 3 1 2 1 1 2 1 0 1 3 3 4 4 5 5 5 5 5 7 7 7 8 8 10 10 10 11 10 11 12 9 6 7 7 7 10 8 5 1 2 6 3 5 2 4 5 5 6 5 6 6 6 6
9 10 9 9 9 10 12 12 13 12 13 11 10 11 11 11 11 10 9 9 9 8 9 7 7 7 7 6 6 3 2 1 0 1 3 3 3 2 3 3 2 2 2 4 4 4 4 4 4 4 5 6 6 6 6 6 8 9 10 10 11 9 11 8 8 8 8 8 5 4 7 7 6 3 5 4 1 3 4 5 6 6 5 6 6
8 8 9 11 11 12 13 14 12 12 11 9 9 11 12 11 10 10 9 8 9 8 8 8 8 8 6 5 4 4 5 4 4 4 5 1 2 2 2 2 2 3 3 4 4 4 4 4 4 4 4 4 5 6 6 7 7 8 7 9 10 9 7 10 12 11 7 7 7 7 1 1 5 9 6 5 1 3 4 5 5 5 6 7 7
6 10 10 9 11 12 13 11 12 11 9 9 10 10 12 13 11 10 8 8 9 8 8 9 8 8 8 7 7 7 7 6 6 3 3 3 3 1 1 2 2 2 2 2 3 4 5 5 4 4 4 4 5 6 7 6 5 5 7 9 8 9 9 10 10 9 14 11 10 8 4 3 2 1 4 10 7 6 6 3 4 6 5 6 7
7 8 9 10 11 11 10 11 10 10 10 11 10 10 9 8 7 5 8 9 9 9 9 10 10 9 8 7 7 6 7 6 7 7 6 2 1 1 0 0 2 2 3 3 3 3 3 4 4 4 5 5 6 5 5 6 7 6 7 8 9 8 9 7 8 10 10 10 9 7 4 6 3 4 2 3 5 4 3 7 6 2 4 6 7
6 7 8 9 9 9 8 8 11 10 9 9 8 7 6 5 7 10 11 9 8 8 9 10 10 9 9 8 7 7 7 7 6 7 6 6 5 1 1 1 1 3 3 3 3 3 3 3 4 4 5 5 4 5 5 6 6 6 7 9 9 11 8 8 10 8 10 9 10 9 9 4 4 3 4 4 2 4 8 8 8 10 9 10 8
5 6 7 8 7 7 7 10 9 10 9 8 7 6 6 8 10 12 11 9 8 8 9 10 9 9 8 8 7 7 7 6 6 6 6 6 5 6 4 2 2 2 3 4 4 3 3 3 4 4 4 4 5 5 6 6 7 7 6 7 9 11 9 9 9 7 7 9 9 8 11 12 13 11 10 7 7 5 3 5 6 10 12 6 8
5 5 7 8 8 8 8 10 10 9 10 10 9 9 10 11 11 12 11 9 7 7 9 10 10 10 9 8 8 7 7 6 6 6 7 6 6 7 7 7 6 3 1 3 4 4 4 4 4 4 4 4 5 6 5 6 6 5 6 6 7 8 9 10 9 10 8 8 11 9 10 9 9 8 8 10 10 8 9 8 8 5 3 5 2
3 4 6 6 7 7 7 7 8 10 10 10 11 9 9 9 9 8 9 8 7 7 9 11 12 11 10 9 8 7 7 7 6 8 6 7 7 7 7 7 7 7 7 3 3 4 4 4 4 4 4 5 5 4 5 5 5 6 6 6 7 7 9 10 10 11 11 10 10 10 9 9 11 8 6 8 7 6 7 6 7 6 8 6 3
3 5 6 6 6 5 5 6 7 8 8 9 8 9 8 8 8 7 6 6 7 8 10 11 12 11 10 9 8 7 8 7 7 7 7 6 6 6 7 6 7 7 7 7 7 4 3 4 5 4 4 4 4 5 5 5 5 6 6 6 6 7 7 9 11 9 9 10 7 8 10 10 10 9 9 7 8 7 7 8 6 4 2 6 1
4 5 5 6 5 5 5 6 6 6 7 7 6 7 6 6 6 7 8 9 9 9 9 11 10 10 9 8 8 7 7 7 7 7 7 7 7 7 7 6 7 7 7 7 8 8 6 4 4 4 4 4 4 4 5 5 5 5 5 6 7 6 7 8 9 9 10 9 8 8 8 9 9 8 9 10 7 10 10 9 9 7 1 2 4
3 4 5 5 4 4 5 5 5 5 5 5 6 6 6 6 5 5 6 7 9 10 10 9 9 8 8 9 8 7 6 6 6 7 7 7 7 7 7 7 7 7 7 8 8 8 8 6 3 3 4 4 4 5 5 4 5 5 6 5 7 5 7 8 8 8 11 10 9 8 7 8 7 8 9 9 9 8 8 7 9 10 11 6 3
4 4 4 4 4 5 5 5 5 6 6 6 5 4 4 4 4 6 7 7 8 7 7 8 9 9 9 9 8 8 8 7 8 8 8 8 7 7 8 8 7 7 7 6 8 8 8 8 6 5 4 4 5 5 5 5 5 5 6 6 7 6 6 7 7 8 8 8 9 10 9 8 7 6 7 8 8 8 8 8 10 12 11 11 7
4 4 3 4 4 4 4 4 4 4 4 4 4 5 4 4 6 7 7 8 7 8 9 10 10 8 8 9 9 8 7 7 7 7 6 6 7 7 8 9 9 9 7 7 7 8 8 8 7 7 6 5 5 5 5 5 5 4 5 5 6 5 7 7 6 7 8 7 8 9 9 9 7 6 7 6 8 9 8 8 8 9 10 14 9
2 2 2 1 3 3 3 3 3 2 2 2 3 3 4 5 5 4 4 5 5 6 6 7 7 6 6 7 8 8 8 7 6 6 6 6 7 6 5 5 6 7 8 8 8 7 7 7 6 6 6 6 5 5 5 5 5 5 5 6 5 5 7 7 7 6 7 7 8 10 9 9 7 8 8 7 7 7 8 8 8 8 9 12 10
0 1 1 1 1 1 2 3 4 4 3 3 3 3 2 2 2 3 4 5 7 8 7 7 6 6 6 6 6 6 8 8 9 8 9 8 8 8 8 8 8 6 5 6 7 7 8 8 7 7 6 6 5 5 5 5 5 5 5 6 6 6 7 8 8 7 6 6 8 10 10 9 7 7 9 8 8 7 7 7 7 7 7 8 8
2 2 1 1 0 2 3 4 3 4 3 2 3 3 2 1 2 4 5 6 8 7 6 5 5 5 5 5 5 5 6 6 7 7 8 8 9 9 9 8 8 9 9 10 8 7 6 6 6 7 7 7 6 6 5 5 4 5 5 5 6 6 7 8 7 8 7 7 8 10 10 10 6 8 10 9 8 8 7 7 7 7 7 6 7
2 2 2 2 4 5 5 5 4 4 3 2 3 2 2 2 3 4 5 5 5 5 5 6 5 4 5 3 3 3 3 3 4 4 5 5 6 6 7 9 10 10 8 9 8 8 8 9 8 7 6 6 6 7 7 5 6 6 6 5 6 7 8 8 7 8 7 7 7 10 10 8 7 10 11 11 10 9 8 9 8 8 8 8 7
4 4 4 4 3 3 3 3 2 2 1 1 1 1 1 2 3 3 4 4 4 4 4 4 4 4 5 4 3 3 3 4 4 4 4 4 4 4 4 4 5 6 6 7 9 9 9 8 8 8 8 8 6 6 5 5 5 6 7 6 6 7 8 8 8 9 8 7 8 9 9 7 6 9 11 11 9 10 9 10 12 9 10 10 8
4 3 3 3 4 3 3 1 0 1 1 1 1 1 1 2 2 2 3 3 4 4 4 4 4 3 4 4 4 4 3 3 3 3 3 4 4 4 4 4 5 6 7 7 6 6 7 8 9 10 9 9 9 8 7 6 6 6 6 7 7 7 7 8 8 9 8 8 9 10 9 7 7 11 11 10 8 8 9 9 10 10 11 12 9
2 3 2 2 2 2 2 2 2 3 3 3 3 2 2 2 3 2 2 1 3 2 4 4 5 4 4 4 3 3 4 4 4 3 3 4 4 4 3 3 4 4 5 7 8 7 6 6 7 8 9 9 9 9 9 9 7 6 7 7 7 7 8 8 9 9 9 9 10 10 9 6 8 11 11 9 8 9 10 10 11 10 10 10 7
0 2 1 0 0 0 0 1 1 1 1 2 3 2 2 1 1 1 1 1 3 2 4 4 5 5 6 6 5 5 5 5 5 5 5 5 5 5 5 5 5 6 5 5 6 7 6 8 7 7 7 8 8 8 8 8 9 8 7 7 7 7 8 8 8 8 8 8 9 10 9 8 10 12 12 9 9 11 10 11 12 11 10 8 9
0 0 1 2 3 3 2 2 2 2 2 2 3 4 4 4 4 3 2 1 2 1 3 3 4 4 5 5 5 5 6 6 6 5 5 5 5 6 6 6 5 4 5 6 6 7 6 6 8 8 8 9 8 7 8 8 8 8 8 8 8 8 8 8 7 8 8 8 9 9 9 9 11 12 12 11 10 10 10 12 12 11 10 9 10
1 1 2 3 3 2 2 2 1 2 2 3 3 3 3 3 3 4 4 4 4 4 5 5 5 5 5 6 6 6 7 8 8 7 6 5 5 5 5 6 6 6 5 5 6 7 7 6 7 7 8 8 8 8 8 8 8 8 8 8 8 8 8 8 8 9 9 9 10 10 10 10 11 11 11 10 10 11 10 11 11 10 10 11 12
5 5 4 5 4 4 4 3 3 3 3 4 4 4 4 4 3 3 3 3 2 1 3 4 5 5 6 5 5 5 5 6 7 7 9 9 8 7 6 6 6 7 7 7 6 6 8 8 7 8 8 7 8 8 7 8 9 9 8 8 9 9 9 9 9 9 9 9 9 9 10 10 11 14 17 15 13 12 10 11 11 9 10 10 11
5 5 5 4 4 4 4 4 4 5 5 5 5 5 5 5 5 4 4 4 1 2 2 4 5 6 6 6 6 6 6 7 7 8 8 8 9 9 9 8 8 7 7 7 7 8 7 8 9 9 8 8 8 7 10 16 15 10 9 9 9 9 9 10 10 10 10 10 10 10 10 14 15 17 17 18 19 20 20 16 11 8 9 10 11
4 5 5 4 3 4 4 5 5 5 6 6 5 5 5 4 4 4 4 4 2 1 3 4 5 5 6 6 6 7 7 8 9 8 8 8 9 9 9 9 10 9 9 8 8 8 8 8 9 10 10 9 9 9 14 15 17 19 13 9 9 10 9 10 10 11 11 11 10 10 10 12 14 15 15 18 18 20 21 22 22 18 14 12 11
4 4 4 3 4 5 5 5 5 5 5 5 5 5 4 4 4 4 4 2 2 3 4 5 6 6 7 7 7 8 8 10 8 9 9 9 9 9 9 9 10 11 10 9 10 10 9 9 9 9 10 11 11 11 19 19 20 21 18 12 9 9 10 10 10 11 11 11 11 11 10 8 9 11 11 11 14 19 21 22 22 21 22 23 21
4 4 4 5 5 5 6 6 5 5 6 6 5 3 3 4 4 4 3 4 4 4 6 7 8 8 9 9 8 8 9 9 9 9 9 9 10 10 10 10 11 9 9 11 13 13 12 11 10 11 12 11 11 14 20 21 22 22 22 18 10 10 11 11 11 11 11 11 10 10 10 10 9 15 13 12 12 11 14 19 20 22 23 25 25
3 4 5 5 5 5 4 5 5 3 4 4 5 4 4 4 4 5 5 5 7 9 9 10 10 10 10 10 10 9 10 10 10 9 9 9 10 11 10 9 8 8 10 11 12 13 13 14 13 12 12 13 13 15 22 22 22 24 24 20 11 12 12 11 12 12 12 12 12 11 11 11 10 10 10 11 11 12 11 11 12 13 14 19 23
1 3 4 5 5 5 6 7 8 5 5 6 6 5 5 6 5 6 6 7 7 8 9 10 11 11 10 9 10 9 11 11 11 10 10 11 10 10 10 9 8 9 10 11 11 13 13 14 14 14 14 15 14 22 23 24 24 24 24 20 12 12 11 11 12 12 13 13 13 12 12 13 12 11 10 12 11 11 10 11 11 12 13 13 14
2 1 3 3 4 4 4 3 3 5 5 4 4 5 5 5 5 5 5 5 5 7 9 9 10 10 10 10 10 11 11 11 12 12 12 12 11 11 11 10 9 9 10 10 12 12 14 15 15 14 14 17 17 27 27 25 25 25 26 15 12 12 12 12 13 13 13 12 12 13 12 13 13 13 14 19 17 12 10 12 14 13 12 12 13
2 1 1 4 4 4 3 2 3 4 4 4 5 6 6 6 6 5 5 6 6 8 9 10 10 11 11 11 11 12 13 14 13 13 12 12 12 13 12 10 11 12 13 13 14 13 13 14 15 16 16 17 17 23 29 29 26 27 20 12 12 12 13 14 14 14 13 13 13 13 13 13 13 13 14 18 19 19 13 14 14 14 13 12 14
1 3 5 4 3 3 4 4 5 5 5 6 6 6 6 6 6 7 7 8 8 10 10 10 11 10 11 11 11 12 13 14 13 13 13 13 13 12 12 11 12 14 15 15 13 14 14 14 15 17 16 16 18 23 31 31 32 31 24 16 14 14 14 14 14 15 13 13 14 21 18 15 14 14 15 19 20 18 14 14 14 14 15 14 15
5 4 3 2 2 4 4 5 5 5 6 7 7 7 7 7 7 8 8 9 10 10 10 11 12 11 10 10 11 12 13 13 13 13 12 14 15 14 14 14 14 14 15 15 15 14 15 14 14 16 20 21 19 23 31 32 34 32 25 15 13 13 15 15 15 16 14 13 13 15 22 20 17 16 20 21 22 18 14 14 14 14 15 16 16
3 4 3 2 3 5 6 6 6 6 7 8 6 6 6 8 9 8 8 9 10 10 11 11 11 11 11 11 11 12 12 12 14 15 15 15 14 14 14 14 14 13 15 15 15 15 17 17 16 16 17 18 19 20 23 34 33 34 33 21 15 16 18 19 18 17 16 14 13 13 15 20 25 25 24 24 23 23 16 14 13 13 14 18 14
3 2 4 4 5 5 5 5 5 7 7 6 6 8 9 8 8 8 8 9 10 10 11 11 11 11 11 11 11 10 13 14 12 13 14 15 13 13 15 15 16 15 15 16 17 17 17 18 17 17 17 19 17 19 22 32 33 35 37 31 18 18 18 18 17 18 16 16 15 14 13 16 23 25 25 25 24 25 23 16 15 14 16 18 14
3 6 6 5 4 5 5 5 5 7 6 5 7 9 9 8 8 9 8 9 10 10 10 10 11 11 11 11 11 11 11 12 13 13 14 15 13 13 14 14 13 14 16 18 17 16 16 18 17 17 17 19 19 27 22 30 36 36 37 39 25 21 22 19 20 19 18 17 17 15 14 14 20 23 24 24 26 25 27 17 16 19 22 20 14
3 5 6 5 4 4 4 4 5 5 6 6 7 8 8 8 9 10 9 10 10 10 11 11 12 13 12 12 12 12 13 11 12 12 13 15 14 13 14 13 14 15 15 17 16 15 15 16 15 15 15 16 16 17 28 26 32 35 36 36 38 31 34 25 20 20 20 19 17 17 15 19 21 22 23 25 25 26 22 17 22 23 23 22 17
5 6 5 4 4 3 4 4 5 4 5 5 5 8 8 9 11 9 9 9 10 10 11 12 12 13 13 13 12 12 12 11 12 13 13 13 14 13 13 11 12 13 13 14 13 12 14 15 16 16 13 12 12 13 20 29 27 33 34 36 36 36 36 24 21 19 19 19 19 18 16 19 23 24 25 25 25 24 17 22 24 26 24 21 14
4 4 4 4 4 4 6 6 5 5 4 4 4 6 9 10 10 7 9 10 11 11 12 13 14 13 13 13 13 12 12 12 11 11 13 12 13 12 12 11 11 12 12 13 13 11 13 14 14 15 14 12 11 12 13 19 29 31 34 34 35 36 35 35 25 21 21 20 21 26 25 24 23 24 27 26 23 24 27 25 25 24 22 13 12
3 3 4 3 4 4 5 8 7 4 5 4 4 4 9 11 9 9 9 9 10 12 13 14 13 13 13 14 15 13 12 12 13 11 11 11 12 12 11 12 11 12 12 13 13 13 13 13 14 14 14 13 12 11 11 13 17 22 25 32 36 36 35 34 32 26 33 36 35 33 36 32 25 22 18 15 14 13 21 25 24 21 13 12 11
3 3 4 4 4 6 6 7 10 6 4 4 5 5 7 8 9 10 10 10 10 12 13 13 14 13 13 12 14 12 13 12 11 11 10 10 11 11 12 12 12 13 13 13 14 13 13 14 15 14 13 14 13 13 14 13 13 14 15 19 22 21 28 29 21 17 20 21 25 27 19 22 23 24 22 16 15 15 15 14 13 13 12 12 12
3 2 2 2 3 4 6 6 8 7 5 6 6 7 7 8 8 9 9 10 11 11 13 14 14 13 12 12 13 14 15 12 11 11 11 11 11 11 12 12 12 13 13 14 14 14 15 15 15 14 14 14 13 12 11 12 13 13 14 14 15 17 15 13 15 15 15 15 14 15 21 17 14 14 14 13 13 12 12 11 11 11 11 12 14
2 1 2 3 3 4 5 6 8 6 7 7 7 7 6 8 9 9 9 10 12 12 12 13 13 12 13 12 11 12 12 12 13 12 11 11 12 12 13 14 14 12 13 14 14 15 15 15 15 15 16 17 15 14 13 16 20 23 21 17 15 15 14 15 19 29 23 16 11 11 11 12 12 12 12 13 12 12 12 12 13 11 11 11 11
1 2 3 3 3 4 5 7 7 6 7 7 8 8 7 8 8 8 9 11 12 12 12 12 12 12 12 11 11 11 12 12 12 13 13 12 14 23 20 17 15 21 30 32 27 20 19 17 17 15 13 16 15 15 25 32 32 33 33 35 33 33 31 27 30 36 27 18 16 15 13 12 12 11 12 12 13 12 12 12 11 14 13 11 11
2 4 4 3 3 4 5 7 7 5 6 8 9 10 9 9 8 8 9 10 11 11 12 12 12 11 12 13 12 12 12 11 12 12 12 13 13 12 21 29 28 28 29 31 31 34 35 33 25 20 20 33 35 37 36 34 34 33 34 33 32 31 34 34 34 25 19 15 14 15 13 11 11 11 10 11 11 11 11 11 10 10 11 11 12
Wind_Direction
46 46 45 33 25 20 20 22 21 26 24 16 17 16 10 11 13 33 32 25 62 66 68 87 87 58 56 97 138 149 135 76 73 27 55 70 89 98 124 126 154 168 177 166 178 174 182 176 160 171 170 172 175 184 182 185 183 178 172 175 168 163 169 154 152 134 127 89 81 110 99 132 133 11 248 224 165 155 147 147 170 135 141 137 161
41 37 34 33 26 24 23 24 21 26 17 18 21 17 12 10 12 10 21 17 26 45 86 74 96 137 142 175 153 141 136 134 143 109 119 90 100 112 131 139 160 173 178 178 184 181 181 179 171 176 173 181 187 182 182 183 175 175 162 172 195 170 175 165 163 126 168 165 149 165 59 255 198 203 246 234 203 175 170 178 179 163 160 165 169
40 37 32 33 28 28 30 28 28 26 20 20 15 20 18 12 11 17 18 14 14 22 31 38 37 33 50 32 41 21 50 61 66 50 80 76 77 91 112 138 147 171 181 186 188 193 188 181 181 175 179 175 173 186 185 187 186 181 176 175 182 204 159 181 171 178 158 140 121 98 205 167 294 276 251 224 199 193 180 181 174 169 170 171 162
46 35 30 29 35 33 34 33 27 25 23 19 16 17 17 14 17 25 20 14 11 6 12 30 59 58 57 54 49 80 78 38 41 39 41 47 44 60 53 109 136 166 181 192 197 201 199 197 187 179 186 181 181 184 187 192 186 184 181 185 170 173 183 199 200 189 143 137 170 199 190 142 247 240 205 223 188 189 183 190 174 176 170 171 160
50 43 32 33 37 39 38 36 32 33 25 21 16 17 13 11 19 24 22 14 6 5 4 7 41 50 66 55 57 55 43 73 80 56 105 101 63 97 235 134 159 173 183 197 200 211 214 210 198 190 188 193 187 192 193 197 193 192 188 182 182 181 191 182 209 204 200 195 147 118 99 223 218 202 138 253 184 194 204 187 189 170 174 180 178
52 45 34 28 41 45 43 39 37 34 31 21 20 20 17 13 18 19 18 15 5 2 5 10 34 43 33 35 28 28 22 41 116 197 172 154 191 205 176 171 187 191 187 194 210 216 226 226 221 198 196 197 198 202 203 199 201 198 197 190 194 199 183 169 190 223 211 218 224 210 150 175 174 187 129 233 204 230 202 208 192 188 177 184 193
42 52 38 31 28 35 38 37 35 35 27 21 24 26 24 20 17 18 15 11 6 3 10 17 31 31 36 38 38 34 23 2 15 35 50 24 116 133 174 168 187 189 207 185 193 210 224 235 236 229 213 203 202 204 209 209 207 207 198 200 201 197 171 186 191 198 217 249 234 234 154 149 152 131 202 96 203 282 225 212 222 202 186 185 198
37 45 40 37 34 34 35 34 34 34 26 25 27 25 27 24 17 14 12 13 12 7 12 20 35 30 30 28 25 23 19 5 3 7 55 62 33 44 87 172 186 197 223 235 204 197 204 220 224 234 237 222 204 213 216 219 216 218 210 210 205 203 199 196 195 189 191 212 216 226 207 156 205 164 159 170 158 164 231 249 245 208 202 208 198
46 47 42 37 34 32 32 37 34 32 29 29 23 21 25 25 19 18 29 24 15 15 19 24 33 34 34 26 21 12 13 5 0 2 8 36 53 29 349 260 184 211 218 227 235 215 209 219 221 223 225 231 215 219 223 222 219 208 208 210 211 214 212 209 192 201 201 206 195 227 189 200 205 213 170 147 139 141 216 190 212 215 224 231 217
37 47 51 46 39 33 31 36 37 32 28 27 24 20 22 24 30 34 34 27 18 23 28 34 35 35 31 20 21 11 7 5 10 4 0 359 360 332 229 243 236 202 216 237 245 236 219 212 222 228 230 231 227 222 226 228 230 224 212 209 210 215 214 212 213 204 207 209 206 196 197 175 208 251 232 196 209 172 172 195 192 178 198 228 203
25 40 41 48 41 33 25 40 35 33 27 26 23 20 18 27 28 33 29 24 16 26 36 42 40 41 34 22 16 12 7 13 12 3 356 0 351 340 337 304 247 210 190 210 218 230 230 221 217 230 235 232 229 235 233 227 230 229 223 217 214 214 216 219 224 218 200 210 211 204 207 195 196 194 199 199 186 180 119 189 186 195 200 206 221
21 26 38 36 33 26 21 28 29 26 26 25 21 17 19 21 23 28 22 15 8 14 39 46 47 44 41 26 16 8 9 12 8 12 2 360 356 354 348 353 338 317 212 186 214 219 215 227 227 231 239 240 238 231 235 231 230 235 232 223 224 223 222 222 224 224 211 205 212 208 213 214 221 215 204 196 191 199 185 182 182 181 260 233 210
3 27 47 38 38 29 23 26 29 25 24 15 14 13 16 18 19 25 21 9 7 9 33 40 41 38 36 32 23 10 4 12 12 14 3 2 357 357 356 353 347 352 339 315 263 217 208 214 224 227 238 240 241 242 244 239 234 233 232 230 222 220 222 224 226 227 221 214 212 214 211 210 217 216 202 205 213 195 188 165 210 174 183 188 208
28 37 41 39 35 26 29 33 33 31 27 24 16 14 6 9 7 18 16 11 9 18 25 37 39 34 29 30 25 17 13 11 16 14 2 358 355 352 350 348 345 340 338 339 327 295 226 210 208 216 222 232 235 238 242 243 237 235 236 236 230 226 222 228 233 234 234 233 218 217 218 214 218 208 210 196 196 183 204 193 172 211 148 182 135
38 47 44 41 25 26 30 30 32 30 26 20 19 12 12 6 3 8 13 11 14 18 23 33 35 31 26 23 21 18 16 12 12 11 2 360 354 352 348 347 349 339 337 330 334 342 318 257 224 224 240 243 247 250 248 245 244 243 242 245 244 231 228 226 231 232 238 240 237 227 224 223 219 210 209 217 193 200 198 188 169 167 155 120 186
40 39 44 35 32 23 27 22 27 24 24 23 15 11 8 0 356 5 16 11 13 14 20 24 29 30 27 22 15 11 11 10 11 9 7 5 355 356 347 347 342 336 336 338 333 333 330 321 293 264 258 261 257 249 249 246 245 241 248 251 254 247 239 233 233 228 237 238 242 245 239 237 223 214 215 217 214 206 199 189 183 181 179 217 208
47 47 37 23 17 27 24 28 15 17 16 15 9 358 353 344 353 3 9 13 17 16 19 23 21 26 19 16 11 10 11 15 11 6 6 4 4 359 357 345 339 339 333 332 328 327 328 326 324 312 298 276 268 260 252 247 242 238 238 244 251 253 248 243 237 232 236 233 239 239 240 243 237 235 229 222 217 213 208 197 189 191 191 202 187
68 54 44 40 33 15 19 16 22 15 16 5 3 360 352 353 4 12 10 15 5 9 14 16 19 19 16 10 5 4 3 3 6 14 6 12 2 2 357 356 349 340 335 329 328 327 322 319 315 309 299 291 277 272 266 257 250 245 238 239 240 245 253 257 247 239 239 232 240 243 241 247 243 242 240 234 224 220 213 207 203 203 188 206 194
64 70 51 29 40 15 359 1 333 337 349 352 338 354 1 5 1 8 11 6 5 12 18 20 22 14 8 3 356 357 359 359 358 8 7 11 7 0 0 348 336 337 339 336 333 328 321 314 314 307 302 291 281 272 264 262 250 250 247 247 252 246 246 249 246 237 240 228 237 242 242 244 237 244 248 245 244 234 227 219 217 199 205 211 193
153 81 84 12 23 342 308 315 318 320 335 334 331 325 343 338 342 353 5 14 15 18 15 13 7 7 1 3 355 359 355 355 353 360 3 3 359 355 350 354 344 335 340 340 336 335 330 327 320 312 306 300 291 278 267 256 255 246 244 248 249 244 249 249 251 240 237 231 238 242 240 239 234 235 245 241 244 244 233 231 226 214 212 211 185
200 199 189 194 293 303 305 296 300 296 293 309 306 301 289 313 348 359 16 10 15 3 10 357 359 349 358 351 350 354 355 350 352 354 3 353 354 351 350 346 341 344 346 343 341 337 332 324 318 317 316 313 307 297 286 273 264 259 252 242 247 243 247 251 246 252 244 234 236 241 243 240 229 231 239 238 237 238 241 240 235 229 229 210 188
154 180 173 212 214 227 235 241 242 242 248 237 268 267 309 333 0 9 17 8 18 350 7 342 345 346 345 332 315 316 331 336 349 339 2 343 348 341 339 345 344 335 341 333 330 329 332 334 334 326 318 311 310 308 303 299 283 273 263 248 246 244 248 249 241 248 246 244 241 241 241 237 226 235 238 237 231 231 226 233 237 226 232 227 207
203 200 212 204 219 224 231 233 231 220 229 229 251 332 332 356 28 13 31 359 7 337 350 330 326 329 324 318 332 324 336 327 350 323 345 326 324 319 319 329 311 311 318 322 324 326 327 330 328 327 326 324 316 308 300 290 277 264 260 257 248 244 244 246 246 245 245 243 247 246 246 232 224 235 239 238 234 233 228 229 232 224 232 230 218
198 211 210 209 208 236 235 242 64 35 40 356 16 31 17 11 33 29 22 1 357 345 347 339 329 324 317 323 318 312 335 319 332 300 331 305 308 300 304 324 315 319 320 313 312 312 321 326 327 324 324 320 319 316 313 305 294 283 272 265 259 253 249 248 247 248 245 242 244 250 247 234 230 238 238 233 231 230 230 232 236 230 229 230 217
144 112 75 35 38 30 40 18 15 20 17 7 8 16 13 8 15 6 358 341 349 331 360 343 344 343 333 332 318 321 332 320 316 302 310 314 313 303 291 296 302 305 310 319 320 321 319 318 315 313 312 312 310 312 312 309 302 295 286 278 270 262 256 251 248 247 245 243 245 245 248 232 231 241 243 236 227 227 229 231 234 231 232 231 225
141 121 90 131 203 209 82 1 353 4 11 356 352 353 352 351 330 302 303 319 330 2 352 356 343 352 338 341 338 343 338 333 323 318 322 329 324 319 315 320 321 318 318 316 308 311 313 311 306 299 296 296 296 296 295 293 294 293 288 280 273 267 264 262 259 254 250 246 249 248 245 237 239 242 247 240 231 231 229 229 231 232 228 225 225
163 72 345 327 345 323 322 332 340 341 351 351 344 348 341 347 337 338 342 359 327 29 349 356 336 339 334 328 334 333 328 325 318 310 318 327 321 318 319 312 305 304 309 313 311 305 304 301 299 301 300 294 289 285 282 278 277 276 275 274 270 268 268 268 263 259 256 255 253 253 248 240 242 244 248 244 237 236 230 232 228 226 218 218 224
222 242 246 248 249 272 278 275 309 306 321 326 313 308 307 300 313 314 328 342 339 8 351 348 344 339 335 326 326 327 327 322 319 316 314 309 303 307 307 303 304 304 298 297 298 297 295 297 291 291 288 287 286 286 280 276 272 271 271 270 270 270 272 270 267 262 260 258 257 256 253 247 244 247 246 246 237 241 237 239 233 225 218 217 221
219 222 230 225 227 235 244 256 262 264 272 269 266 271 275 276 269 270 279 290 281 4 332 331 331 325 314 309 308 306 300 304 306 311 311 310 307 302 299 296 292 292 292 290 288 288 294 296 294 291 290 284 281 278 276 279 281 278 271 271 273 272 271 273 272 268 263 261 261 258 257 253 250 250 247 245 241 237 238 243 237 222 217 218 221
216 225 228 227 227 229 234 238 244 243 248 254 256 258 252 245 257 265 272 270 270 295 320 321 314 302 298 299 298 298 298 296 299 298 294 295 299 302 302 300 295 286 279 282 288 288 285 289 294 292 289 290 283 276 274 274 273 272 276 274 272 270 269 270 271 272 268 261 259 261 258 256 254 253 251 249 247 245 242 239 239 222 219 221 219
240 233 232 228 233 244 251 254 246 244 243 242 243 244 246 250 258 263 263 264 251 270 287 283 283 279 284 287 292 290 292 293 289 291 290 291 292 292 294 296 298 297 293 288 281 281 284 285 286 288 288 286 281 279 273 270 273 276 275 273 272 273 267 264 265 266 269 267 262 258 257 257 256 256 255 252 249 247 246 246 245 236 226 221 221
310 297 265 244 243 244 248 250 252 249 249 251 253 253 255 259 266 273 265 285 326 303 295 286 280 284 282 285 283 284 285 283 285 284 285 285 284 284 285 288 293 297 298 297 290 283 281 281 281 281 281 280 280 270 274 278 280 282 279 272 270 270 270 266 260 260 260 263 262 260 255 252 249 248 250 248 246 245 246 247 246 243 240 235 227
266 273 281 266 244 237 234 242 255 251 246 247 241 255 272 272 302 292 343 0 337 321 310 303 297 293 290 287 285 283 282 281 280 280 281 283 281 278 280 284 285 289 299 298 296 296 292 288 281 279 278 276 275 274 276 278 278 276 276 274 269 269 266 265 262 260 259 258 257 256 258 251 247 244 245 246 247 246 243 244 246 245 242 240 238
336 343 339 325 314 292 256 237 247 288 339 356 14 20 354 359 7 8 6 341 338 325 313 303 299 295 293 292 290 289 286 284 284 283 281 279 278 276 277 278 282 290 289 290 292 292 292 292 291 288 286 283 277 272 275 275 276 276 274 270 265 265 263 260 261 259 260 259 253 253 254 255 250 245 239 241 241 241 242 241 240 239 241 243 241
341 341 323 318 318 335 355 10 23 26 22 21 8 16 8 358 358 352 340 331 321 306 302 301 298 297 297 296 294 293 294 294 294 292 289 284 282 283 280 279 282 283 287 287 289 290 288 289 290 290 290 288 284 281 280 277 274 272 271 272 266 263 260 259 258 258 256 256 256 252 250 253 253 245 240 237 238 238 237 236 235 235 235 238 240
272 278 283 316 10 55 62 37 7 30 12 13 7 2 7 331 333 326 317 314 308 303 298 298 297 299 302 304 305 304 302 302 301 298 295 293 295 293 291 290 286 284 281 283 282 279 280 281 283 285 287 285 285 286 286 284 282 279 276 271 265 260 259 258 257 256 254 253 255 252 251 251 249 247 242 240 238 238 236 236 236 237 238 237 238
247 238 307 68 92 79 60 53 36 31 7 6 10 9 351 334 327 319 324 315 311 304 302 301 300 303 307 311 314 313 310 306 303 300 300 301 302 300 298 299 293 289 286 283 280 279 278 277 279 280 280 280 282 284 285 284 283 282 281 279 273 269 263 259 256 255 255 253 251 248 247 249 249 247 240 236 237 238 239 238 239 239 239 238 242
248 41 72 58 50 58 36 44 24 10 23 27 14 8 348 330 324 323 322 315 312 305 306 306 305 312 313 316 316 313 308 306 308 306 306 306 306 304 302 304 298 295 289 285 283 280 274 272 273 274 274 277 279 281 282 283 283 281 279 275 271 268 264 262 261 256 252 251 248 247 245 245 246 246 238 235 233 233 236 238 239 239 241 240 242
94 106 76 54 47 55 43 39 27 33 25 18 7 357 346 328 322 322 319 314 311 310 314 314 314 315 317 320 318 314 309 310 313 316 318 314 310 306 302 300 294 290 287 288 285 281 278 274 270 271 274 274 275 277 279 281 281 281 280 275 273 272 272 268 266 264 259 251 250 247 244 243 242 243 240 238 235 229 231 233 236 235 239 241 241
105 87 84 58 57 46 33 30 37 32 10 7 0 352 336 325 320 321 317 312 311 315 316 314 317 321 322 319 315 313 316 321 318 313 310 304 303 302 299 298 295 292 289 286 284 281 280 279 277 274 273 270 273 273 275 277 279 279 278 277 274 272 266 264 262 261 263 257 249 247 242 240 242 241 240 238 236 229 227 231 232 232 235 242 240
82 50 50 53 50 54 42 44 37 18 6 357 356 345 328 323 318 317 310 310 315 318 317 319 319 318 318 317 315 317 316 312 308 304 302 299 300 299 300 298 296 294 292 289 289 289 285 283 280 276 274 272 270 273 275 276 277 277 276 276 272 266 265 264 265 262 257 258 254 247 247 235 238 241 242 241 236 232 229 228 228 229 230 238 235
77 62 59 54 42 45 35 26 27 11 1 357 346 334 321 320 319 310 309 318 319 319 320 318 316 314 311 308 307 306 303 299 299 298 296 293 295 295 293 295 293 293 293 291 290 289 286 283 282 280 277 277 275 275 277 278 277 277 276 274 271 267 264 264 266 263 259 255 250 250 249 238 234 237 241 240 238 236 231 228 227 229 232 233 230
43 48 48 47 35 28 12 359 4 359 1 350 344 323 316 315 308 307 319 322 320 319 316 314 311 308 306 304 302 301 299 297 293 292 291 292 294 292 289 288 288 288 288 287 286 285 282 283 282 280 279 279 280 280 279 280 280 281 279 278 274 272 270 267 261 260 257 254 252 250 246 242 237 234 236 239 239 237 235 233 233 232 232 228 223
77 88 64 49 33 13 344 345 345 356 352 346 333 315 311 307 301 315 322 319 316 314 313 310 308 305 305 304 302 301 297 294 293 293 289 289 289 288 286 285 286 285 286 286 284 285 284 284 285 284 280 276 278 279 283 285 287 288 288 285 283 279 275 270 263 257 257 255 254 251 245 238 237 235 237 239 239 236 232 234 235 233 231 228 223
85 77 63 51 29 348 333 327 339 341 338 324 323 309 305 301 304 321 316 316 314 314 312 309 307 306 305 304 301 299 297 295 293 291 291 290 287 287 287 285 283 284 281 281 282 280 279 282 283 284 284 280 273 274 277 285 289 291 292 291 290 287 283 278 272 265 257 255 251 249 245 243 239 237 237 239 241 239 235 234 231 228 229 229 224
75 61 44 36 7 352 339 322 322 329 315 314 304 301 299 299 310 313 312 312 312 312 309 306 305 305 304 303 302 301 297 297 294 289 284 283 285 288 286 287 283 280 279 281 283 283 281 282 281 284 284 287 291 289 290 293 298 296 295 296 294 291 285 280 274 266 264 261 257 253 251 248 242 236 236 236 236 230 233 234 233 230 226 225 220
75 58 36 8 359 336 326 317 308 314 311 308 302 295 289 300 308 309 311 311 311 308 305 305 305 305 304 303 304 305 302 298 293 291 285 285 285 283 284 284 282 282 281 280 281 280 281 280 278 278 278 280 279 279 281 279 277 281 282 286 287 286 285 287 287 278 267 261 260 258 251 245 247 243 237 231 231 231 231 231 231 226 223 219 219
86 52 49 12 341 317 307 305 301 306 311 305 302 298 297 301 303 307 309 309 306 306 305 305 304 305 304 305 302 297 297 297 295 294 294 291 285 282 282 280 281 281 282 280 277 277 277 275 276 275 275 273 270 269 267 269 270 271 271 272 278 286 290 295 293 290 282 266 258 258 260 259 252 244 241 238 234 228 223 221 222 220 220 218 219
22 10 30 334 310 302 291 296 295 303 304 302 296 297 300 303 305 308 308 307 305 304 300 299 302 304 300 298 295 296 295 296 295 293 285 283 288 286 280 274 265 260 262 268 271 271 267 266 264 269 274 273 270 267 263 260 263 266 271 273 271 276 283 280 281 287 292 292 279 263 253 253 245 242 239 235 230 225 220 217 217 217 217 216 215
25 12 326 309 299 293 301 297 296 302 301 300 301 302 303 301 303 303 305 305 304 303 301 302 303 300 297 297 297 295 296 295 294 293 293 284 273 285 288 288 288 284 285 286 287 287 286 286 285 278 271 280 282 280 283 282 284 287 286 286 284 282 280 281 282 284 288 291 283 267 247 239 238 233 231 229 227 222 218 213 213 217 217 213 212
338 325 309 296 298 304 295 293 294 305 302 303 302 302 304 304 302 303 304 301 300 303 303 301 301 297 297 298 298 298 295 293 292 293 291 293 294 283 284 288 287 290 291 291 292 291 292 293 293 294 294 293 294 296 298 298 297 296 295 292 289 286 285 283 284 286 287 282 285 277 257 236 232 232 229 230 228 225 218 215 213 211 214 214 214